Data supplied by UK-AIR on 9/6/2008
All Data GMT hour ending 
Status: R =Ratified P=Provisional,P*=As supplied
,,Manchester South,,,,,,,,,,,,,,,,,,,,,,,
Date,time,"Nitric oxide",status,unit,"Nitrogen dioxide",status,unit,"Nitrogen oxides as nitrogen dioxide",status,unit,"Ozone",status,unit,"Sulphur dioxide",status,unit
 
01-01-2006,01:00,,,,,,,,,,,,,,,
01-01-2006,02:00,1,R,ugm-3,,,,,,,32,R,ugm-3,5,R,ugm-3
01-01-2006,03:00,3,R,ugm-3,,,,,,,30,R,ugm-3,3,R,ugm-3
01-01-2006,04:00,1,R,ugm-3,,,,,,,30,R,ugm-3,3,R,ugm-3
01-01-2006,05:00,3,R,ugm-3,,,,,,,32,R,ugm-3,3,R,ugm-3
01-01-2006,06:00,1,R,ugm-3,,,,,,,38,R,ugm-3,3,R,ugm-3
01-01-2006,07:00,3,R,ugm-3,,,,,,,34,R,ugm-3,3,R,ugm-3
01-01-2006,08:00,3,R,ugm-3,,,,,,,30,R,ugm-3,3,R,ugm-3
01-01-2006,09:00,3,R,ugm-3,,,,,,,28,R,ugm-3,3,R,ugm-3
01-01-2006,10:00,3,R,ugm-3,,,,,,,26,R,ugm-3,3,R,ugm-3
01-01-2006,11:00,6,R,ugm-3,,,,,,,24,R,ugm-3,3,R,ugm-3
01-01-2006,12:00,6,R,ugm-3,,,,,,,26,R,ugm-3,5,R,ugm-3
01-01-2006,13:00,4,R,ugm-3,,,,,,,32,R,ugm-3,5,R,ugm-3
01-01-2006,14:00,4,R,ugm-3,,,,,,,36,R,ugm-3,3,R,ugm-3
01-01-2006,15:00,3,R,ugm-3,,,,,,,34,R,ugm-3,5,R,ugm-3
01-01-2006,16:00,3,R,ugm-3,,,,,,,28,R,ugm-3,5,R,ugm-3
01-01-2006,17:00,3,R,ugm-3,,,,,,,22,R,ugm-3,3,R,ugm-3
01-01-2006,18:00,3,R,ugm-3,,,,,,,14,R,ugm-3,5,R,ugm-3
01-01-2006,19:00,5,R,ugm-3,,,,,,,6,R,ugm-3,5,R,ugm-3
01-01-2006,20:00,9,R,ugm-3,,,,,,,4,R,ugm-3,5,R,ugm-3
01-01-2006,21:00,18,R,ugm-3,,,,,,,2,R,ugm-3,5,R,ugm-3
01-01-2006,22:00,19,R,ugm-3,,,,,,,2,R,ugm-3,5,R,ugm-3
01-01-2006,23:00,34,R,ugm-3,,,,,,,2,R,ugm-3,5,R,ugm-3
01-01-2006,24:00,40,R,ugm-3,,,,,,,2,R,ugm-3,5,R,ugm-3
02-01-2006,01:00,59,R,ugm-3,,,,,,,2,R,ugm-3,8,R,ugm-3
02-01-2006,02:00,28,R,ugm-3,,,,,,,2,R,ugm-3,3,R,ugm-3
02-01-2006,03:00,28,R,ugm-3,,,,,,,2,R,ugm-3,5,R,ugm-3
02-01-2006,04:00,35,R,ugm-3,,,,,,,0,R,ugm-3,5,R,ugm-3
02-01-2006,05:00,39,R,ugm-3,,,,,,,2,R,ugm-3,5,R,ugm-3
02-01-2006,06:00,28,R,ugm-3,,,,,,,2,R,ugm-3,5,R,ugm-3
02-01-2006,07:00,30,R,ugm-3,,,,,,,2,R,ugm-3,3,R,ugm-3
02-01-2006,08:00,60,R,ugm-3,,,,,,,2,R,ugm-3,5,R,ugm-3
02-01-2006,09:00,49,R,ugm-3,,,,,,,2,R,ugm-3,3,R,ugm-3
02-01-2006,10:00,69,R,ugm-3,,,,,,,2,R,ugm-3,5,R,ugm-3
02-01-2006,11:00,69,R,ugm-3,,,,,,,2,R,ugm-3,3,R,ugm-3
02-01-2006,12:00,43,R,ugm-3,,,,,,,6,R,ugm-3,5,R,ugm-3
02-01-2006,13:00,14,R,ugm-3,,,,,,,14,R,ugm-3,5,R,ugm-3
02-01-2006,14:00,8,R,ugm-3,,,,,,,16,R,ugm-3,5,R,ugm-3
02-01-2006,15:00,9,R,ugm-3,,,,,,,8,R,ugm-3,5,R,ugm-3
02-01-2006,16:00,10,R,ugm-3,,,,,,,6,R,ugm-3,3,R,ugm-3
02-01-2006,17:00,21,R,ugm-3,,,,,,,2,R,ugm-3,3,R,ugm-3
02-01-2006,18:00,14,R,ugm-3,,,,,,,2,R,ugm-3,5,R,ugm-3
02-01-2006,19:00,9,R,ugm-3,,,,,,,4,R,ugm-3,5,R,ugm-3
02-01-2006,20:00,8,R,ugm-3,,,,,,,6,R,ugm-3,3,R,ugm-3
02-01-2006,21:00,4,R,ugm-3,,,,,,,8,R,ugm-3,3,R,ugm-3
02-01-2006,22:00,3,R,ugm-3,,,,,,,10,R,ugm-3,3,R,ugm-3
02-01-2006,23:00,3,R,ugm-3,,,,,,,16,R,ugm-3,3,R,ugm-3
02-01-2006,24:00,3,R,ugm-3,,,,,,,16,R,ugm-3,3,R,ugm-3
03-01-2006,01:00,3,R,ugm-3,,,,,,,16,R,ugm-3,3,R,ugm-3
03-01-2006,02:00,3,R,ugm-3,,,,,,,12,R,ugm-3,3,R,ugm-3
03-01-2006,03:00,3,R,ugm-3,,,,,,,18,R,ugm-3,5,R,ugm-3
03-01-2006,04:00,1,R,ugm-3,,,,,,,18,R,ugm-3,5,R,ugm-3
03-01-2006,05:00,3,R,ugm-3,,,,,,,26,R,ugm-3,5,R,ugm-3
03-01-2006,06:00,1,R,ugm-3,,,,,,,18,R,ugm-3,5,R,ugm-3
03-01-2006,07:00,3,R,ugm-3,,,,,,,20,R,ugm-3,3,R,ugm-3
03-01-2006,08:00,3,R,ugm-3,,,,,,,18,R,ugm-3,3,R,ugm-3
03-01-2006,09:00,3,R,ugm-3,,,,,,,22,R,ugm-3,3,R,ugm-3
03-01-2006,10:00,5,R,ugm-3,,,,,,,14,R,ugm-3,3,R,ugm-3
03-01-2006,11:00,13,R,ugm-3,,,,,,,6,R,ugm-3,5,R,ugm-3
03-01-2006,12:00,25,R,ugm-3,,,,,,,4,R,ugm-3,5,R,ugm-3
03-01-2006,13:00,19,R,ugm-3,,,,,,,6,R,ugm-3,5,R,ugm-3
03-01-2006,14:00,18,R,ugm-3,,,,,,,6,R,ugm-3,5,R,ugm-3
03-01-2006,15:00,35,R,ugm-3,,,,,,,2,R,ugm-3,5,R,ugm-3
03-01-2006,16:00,43,R,ugm-3,,,,,,,2,R,ugm-3,5,R,ugm-3
03-01-2006,17:00,38,R,ugm-3,,,,,,,0,R,ugm-3,5,R,ugm-3
03-01-2006,18:00,83,R,ugm-3,,,,,,,2,R,ugm-3,5,R,ugm-3
03-01-2006,19:00,161,R,ugm-3,,,,,,,2,R,ugm-3,8,R,ugm-3
03-01-2006,20:00,141,R,ugm-3,,,,,,,2,R,ugm-3,8,R,ugm-3
03-01-2006,21:00,171,R,ugm-3,,,,,,,2,R,ugm-3,8,R,ugm-3
03-01-2006,22:00,189,R,ugm-3,,,,,,,0,R,ugm-3,8,R,ugm-3
03-01-2006,23:00,198,R,ugm-3,,,,,,,2,R,ugm-3,8,R,ugm-3
03-01-2006,24:00,135,R,ugm-3,,,,,,,2,R,ugm-3,8,R,ugm-3
04-01-2006,01:00,20,R,ugm-3,,,,,,,4,R,ugm-3,13,R,ugm-3
04-01-2006,02:00,25,R,ugm-3,,,,,,,2,R,ugm-3,11,R,ugm-3
04-01-2006,03:00,9,R,ugm-3,,,,,,,4,R,ugm-3,13,R,ugm-3
04-01-2006,04:00,6,R,ugm-3,,,,,,,6,R,ugm-3,11,R,ugm-3
04-01-2006,05:00,6,R,ugm-3,,,,,,,4,R,ugm-3,8,R,ugm-3
04-01-2006,06:00,58,R,ugm-3,,,,,,,2,R,ugm-3,5,R,ugm-3
04-01-2006,07:00,129,R,ugm-3,,,,,,,2,R,ugm-3,5,R,ugm-3
04-01-2006,08:00,135,R,ugm-3,,,,,,,2,R,ugm-3,5,R,ugm-3
04-01-2006,09:00,130,R,ugm-3,,,,,,,2,R,ugm-3,5,R,ugm-3
04-01-2006,10:00,95,R,ugm-3,,,,,,,2,R,ugm-3,5,R,ugm-3
04-01-2006,11:00,140,R,ugm-3,,,,,,,2,R,ugm-3,5,R,ugm-3
04-01-2006,12:00,266,R,ugm-3,,,,,,,2,R,ugm-3,11,R,ugm-3
04-01-2006,13:00,366,R,ugm-3,,,,,,,2,R,ugm-3,11,R,ugm-3
04-01-2006,14:00,398,R,ugm-3,,,,,,,2,R,ugm-3,13,R,ugm-3
04-01-2006,15:00,398,R,ugm-3,,,,,,,2,R,ugm-3,13,R,ugm-3
04-01-2006,16:00,204,R,ugm-3,,,,,,,2,R,ugm-3,11,R,ugm-3
04-01-2006,17:00,130,R,ugm-3,,,,,,,2,R,ugm-3,11,R,ugm-3
04-01-2006,18:00,104,R,ugm-3,,,,,,,2,R,ugm-3,8,R,ugm-3
04-01-2006,19:00,44,R,ugm-3,,,,,,,2,R,ugm-3,8,R,ugm-3
04-01-2006,20:00,49,R,ugm-3,,,,,,,2,R,ugm-3,8,R,ugm-3
04-01-2006,21:00,34,R,ugm-3,,,,,,,2,R,ugm-3,8,R,ugm-3
04-01-2006,22:00,25,R,ugm-3,,,,,,,2,R,ugm-3,5,R,ugm-3
04-01-2006,23:00,76,R,ugm-3,,,,,,,0,R,ugm-3,5,R,ugm-3
04-01-2006,24:00,20,R,ugm-3,,,,,,,10,R,ugm-3,5,R,ugm-3
05-01-2006,01:00,4,R,ugm-3,,,,,,,18,R,ugm-3,5,R,ugm-3
05-01-2006,02:00,5,R,ugm-3,,,,,,,12,R,ugm-3,5,R,ugm-3
05-01-2006,03:00,3,R,ugm-3,,,,,,,12,R,ugm-3,5,R,ugm-3
05-01-2006,04:00,3,R,ugm-3,,,,,,,8,R,ugm-3,5,R,ugm-3
05-01-2006,05:00,8,R,ugm-3,,,,,,,6,R,ugm-3,5,R,ugm-3
05-01-2006,06:00,29,R,ugm-3,,,,,,,2,R,ugm-3,5,R,ugm-3
05-01-2006,07:00,18,R,ugm-3,,,,,,,4,R,ugm-3,5,R,ugm-3
05-01-2006,08:00,6,R,ugm-3,,,,,,,14,R,ugm-3,5,R,ugm-3
05-01-2006,09:00,5,R,ugm-3,,,,,,,18,R,ugm-3,5,R,ugm-3
05-01-2006,10:00,4,R,ugm-3,,,,,,,16,R,ugm-3,3,R,ugm-3
05-01-2006,11:00,5,R,ugm-3,,,,,,,16,R,ugm-3,3,R,ugm-3
05-01-2006,12:00,5,R,ugm-3,,,,,,,16,R,ugm-3,3,R,ugm-3
05-01-2006,13:00,6,R,ugm-3,,,,,,,16,R,ugm-3,3,R,ugm-3
05-01-2006,14:00,6,R,ugm-3,,,,,,,18,R,ugm-3,3,R,ugm-3
05-01-2006,15:00,5,R,ugm-3,,,,,,,20,R,ugm-3,3,R,ugm-3
05-01-2006,16:00,8,R,ugm-3,,,,,,,18,R,ugm-3,3,R,ugm-3
05-01-2006,17:00,8,R,ugm-3,,,,,,,18,R,ugm-3,3,R,ugm-3
05-01-2006,18:00,8,R,ugm-3,,,,,,,18,R,ugm-3,3,R,ugm-3
05-01-2006,19:00,6,R,ugm-3,,,,,,,18,R,ugm-3,3,R,ugm-3
05-01-2006,20:00,5,R,ugm-3,,,,,,,18,R,ugm-3,3,R,ugm-3
05-01-2006,21:00,4,R,ugm-3,,,,,,,20,R,ugm-3,3,R,ugm-3
05-01-2006,22:00,4,R,ugm-3,,,,,,,18,R,ugm-3,3,R,ugm-3
05-01-2006,23:00,10,R,ugm-3,,,,,,,10,R,ugm-3,3,R,ugm-3
05-01-2006,24:00,9,R,ugm-3,,,,,,,6,R,ugm-3,3,R,ugm-3
06-01-2006,01:00,13,R,ugm-3,,,,,,,6,R,ugm-3,3,R,ugm-3
06-01-2006,02:00,3,R,ugm-3,,,,,,,16,R,ugm-3,5,R,ugm-3
06-01-2006,03:00,3,R,ugm-3,,,,,,,16,R,ugm-3,3,R,ugm-3
06-01-2006,04:00,4,R,ugm-3,,,,,,,12,R,ugm-3,3,R,ugm-3
06-01-2006,05:00,4,R,ugm-3,,,,,,,16,R,ugm-3,3,R,ugm-3
06-01-2006,06:00,9,R,ugm-3,,,,,,,8,R,ugm-3,5,R,ugm-3
06-01-2006,07:00,13,R,ugm-3,,,,,,,4,R,ugm-3,8,R,ugm-3
06-01-2006,08:00,25,R,ugm-3,,,,,,,2,R,ugm-3,8,R,ugm-3
06-01-2006,09:00,59,R,ugm-3,,,,,,,2,R,ugm-3,8,R,ugm-3
06-01-2006,10:00,70,R,ugm-3,,,,,,,2,R,ugm-3,13,R,ugm-3
06-01-2006,11:00,38,R,ugm-3,,,,,,,2,R,ugm-3,13,R,ugm-3
06-01-2006,12:00,39,R,ugm-3,,,,,,,2,R,ugm-3,8,R,ugm-3
06-01-2006,13:00,60,R,ugm-3,,,,,,,2,R,ugm-3,8,R,ugm-3
06-01-2006,14:00,51,R,ugm-3,,,,,,,2,R,ugm-3,8,R,ugm-3
06-01-2006,15:00,46,R,ugm-3,,,,,,,2,R,ugm-3,11,R,ugm-3
06-01-2006,16:00,43,R,ugm-3,,,,,,,2,R,ugm-3,11,R,ugm-3
06-01-2006,17:00,51,R,ugm-3,,,,,,,2,R,ugm-3,8,R,ugm-3
06-01-2006,18:00,51,R,ugm-3,,,,,,,2,R,ugm-3,8,R,ugm-3
06-01-2006,19:00,35,R,ugm-3,,,,,,,2,R,ugm-3,8,R,ugm-3
06-01-2006,20:00,33,R,ugm-3,,,,,,,2,R,ugm-3,8,R,ugm-3
06-01-2006,21:00,33,R,ugm-3,,,,,,,2,R,ugm-3,8,R,ugm-3
06-01-2006,22:00,31,R,ugm-3,,,,,,,2,R,ugm-3,8,R,ugm-3
06-01-2006,23:00,26,R,ugm-3,,,,,,,2,R,ugm-3,8,R,ugm-3
06-01-2006,24:00,19,R,ugm-3,,,,,,,2,R,ugm-3,8,R,ugm-3
07-01-2006,01:00,14,R,ugm-3,,,,,,,0,R,ugm-3,8,R,ugm-3
07-01-2006,02:00,21,R,ugm-3,,,,,,,0,R,ugm-3,8,R,ugm-3
07-01-2006,03:00,25,R,ugm-3,,,,,,,2,R,ugm-3,8,R,ugm-3
07-01-2006,04:00,49,R,ugm-3,,,,,,,2,R,ugm-3,8,R,ugm-3
07-01-2006,05:00,49,R,ugm-3,,,,,,,2,R,ugm-3,8,R,ugm-3
07-01-2006,06:00,58,R,ugm-3,,,,,,,2,R,ugm-3,8,R,ugm-3
07-01-2006,07:00,81,R,ugm-3,,,,,,,2,R,ugm-3,8,R,ugm-3
07-01-2006,08:00,91,R,ugm-3,,,,,,,2,R,ugm-3,8,R,ugm-3
07-01-2006,09:00,149,R,ugm-3,,,,,,,2,R,ugm-3,8,R,ugm-3
07-01-2006,10:00,70,R,ugm-3,,,,,,,0,R,ugm-3,8,R,ugm-3
07-01-2006,11:00,28,R,ugm-3,,,,,,,2,R,ugm-3,8,R,ugm-3
07-01-2006,12:00,49,R,ugm-3,,,,,,,2,R,ugm-3,8,R,ugm-3
07-01-2006,13:00,35,R,ugm-3,,,,,,,2,R,ugm-3,8,R,ugm-3
07-01-2006,14:00,35,R,ugm-3,,,,,,,2,R,ugm-3,8,R,ugm-3
07-01-2006,15:00,18,R,ugm-3,,,,,,,4,R,ugm-3,8,R,ugm-3
07-01-2006,16:00,10,R,ugm-3,,,,,,,6,R,ugm-3,5,R,ugm-3
07-01-2006,17:00,14,R,ugm-3,,,,,,,4,R,ugm-3,5,R,ugm-3
07-01-2006,18:00,13,R,ugm-3,,,,,,,2,R,ugm-3,5,R,ugm-3
07-01-2006,19:00,9,R,ugm-3,,,,,,,4,R,ugm-3,5,R,ugm-3
07-01-2006,20:00,10,R,ugm-3,,,,,,,4,R,ugm-3,5,R,ugm-3
07-01-2006,21:00,4,R,ugm-3,,,,,,,12,R,ugm-3,5,R,ugm-3
07-01-2006,22:00,5,R,ugm-3,,,,,,,10,R,ugm-3,3,R,ugm-3
07-01-2006,23:00,3,R,ugm-3,,,,,,,16,R,ugm-3,3,R,ugm-3
07-01-2006,24:00,4,R,ugm-3,,,,,,,12,R,ugm-3,3,R,ugm-3
08-01-2006,01:00,6,R,ugm-3,,,,,,,6,R,ugm-3,5,R,ugm-3
08-01-2006,02:00,11,R,ugm-3,,,,,,,0,R,ugm-3,5,R,ugm-3
08-01-2006,03:00,4,R,ugm-3,,,,,,,16,R,ugm-3,5,R,ugm-3
08-01-2006,04:00,3,R,ugm-3,,,,,,,22,R,ugm-3,5,R,ugm-3
08-01-2006,05:00,4,R,ugm-3,,,,,,,18,R,ugm-3,5,R,ugm-3
08-01-2006,06:00,9,R,ugm-3,,,,,,,6,R,ugm-3,5,R,ugm-3
08-01-2006,07:00,13,R,ugm-3,,,,,,,2,R,ugm-3,5,R,ugm-3
08-01-2006,08:00,9,R,ugm-3,,,,,,,6,R,ugm-3,5,R,ugm-3
08-01-2006,09:00,14,R,ugm-3,,,,,,,4,R,ugm-3,5,R,ugm-3
08-01-2006,10:00,14,R,ugm-3,,,,,,,4,R,ugm-3,5,R,ugm-3
08-01-2006,11:00,15,R,ugm-3,,,,,,,6,R,ugm-3,8,R,ugm-3
08-01-2006,12:00,20,R,ugm-3,,,,,,,10,R,ugm-3,8,R,ugm-3
08-01-2006,13:00,18,R,ugm-3,,,,,,,6,R,ugm-3,11,R,ugm-3
08-01-2006,14:00,14,R,ugm-3,,,,,,,6,R,ugm-3,11,R,ugm-3
08-01-2006,15:00,15,R,ugm-3,,,,,,,6,R,ugm-3,8,R,ugm-3
08-01-2006,16:00,13,R,ugm-3,,,,,,,4,R,ugm-3,5,R,ugm-3
08-01-2006,17:00,14,R,ugm-3,,,,,,,2,R,ugm-3,5,R,ugm-3
08-01-2006,18:00,14,R,ugm-3,,,,,,,2,R,ugm-3,5,R,ugm-3
08-01-2006,19:00,18,R,ugm-3,,,,,,,0,R,ugm-3,5,R,ugm-3
08-01-2006,20:00,24,R,ugm-3,,,,,,,2,R,ugm-3,5,R,ugm-3
08-01-2006,21:00,28,R,ugm-3,,,,,,,2,R,ugm-3,5,R,ugm-3
08-01-2006,22:00,24,R,ugm-3,,,,,,,0,R,ugm-3,5,R,ugm-3
08-01-2006,23:00,26,R,ugm-3,,,,,,,2,R,ugm-3,5,R,ugm-3
08-01-2006,24:00,30,R,ugm-3,,,,,,,2,R,ugm-3,5,R,ugm-3
09-01-2006,01:00,8,R,ugm-3,,,,,,,6,R,ugm-3,5,R,ugm-3
09-01-2006,02:00,4,R,ugm-3,,,,,,,10,R,ugm-3,11,R,ugm-3
09-01-2006,03:00,3,R,ugm-3,,,,,,,10,R,ugm-3,8,R,ugm-3
09-01-2006,04:00,6,R,ugm-3,,,,,,,6,R,ugm-3,5,R,ugm-3
09-01-2006,05:00,6,R,ugm-3,,,,,,,8,R,ugm-3,5,R,ugm-3
09-01-2006,06:00,6,R,ugm-3,,,,,,,6,R,ugm-3,3,R,ugm-3
09-01-2006,07:00,13,R,ugm-3,,,,,,,4,R,ugm-3,5,R,ugm-3
09-01-2006,08:00,50,R,ugm-3,,,,,,,2,R,ugm-3,5,R,ugm-3
09-01-2006,09:00,108,R,ugm-3,,,,,,,2,R,ugm-3,5,R,ugm-3
09-01-2006,10:00,46,R,ugm-3,,,,,,,2,R,ugm-3,5,R,ugm-3
09-01-2006,11:00,20,R,ugm-3,,,,,,,4,R,ugm-3,5,R,ugm-3
09-01-2006,12:00,11,R,ugm-3,,,,,,,6,R,ugm-3,8,R,ugm-3
09-01-2006,13:00,14,R,ugm-3,,,,,,,4,R,ugm-3,8,R,ugm-3
09-01-2006,14:00,14,R,ugm-3,,,,,,,4,R,ugm-3,5,R,ugm-3
09-01-2006,15:00,15,R,ugm-3,,,,,,,4,R,ugm-3,3,R,ugm-3
09-01-2006,16:00,8,R,ugm-3,,,,,,,4,R,ugm-3,5,R,ugm-3
09-01-2006,17:00,8,R,ugm-3,,,,,,,4,R,ugm-3,3,R,ugm-3
09-01-2006,18:00,4,R,ugm-3,,,,,,,6,R,ugm-3,3,R,ugm-3
09-01-2006,19:00,3,R,ugm-3,,,,,,,6,R,ugm-3,3,R,ugm-3
09-01-2006,20:00,3,R,ugm-3,,,,,,,4,R,ugm-3,3,R,ugm-3
09-01-2006,21:00,3,R,ugm-3,,,,,,,4,R,ugm-3,3,R,ugm-3
09-01-2006,22:00,3,R,ugm-3,,,,,,,4,R,ugm-3,3,R,ugm-3
09-01-2006,23:00,3,R,ugm-3,,,,,,,4,R,ugm-3,3,R,ugm-3
09-01-2006,24:00,3,R,ugm-3,,,,,,,4,R,ugm-3,3,R,ugm-3
10-01-2006,01:00,3,R,ugm-3,,,,,,,4,R,ugm-3,3,R,ugm-3
10-01-2006,02:00,3,R,ugm-3,,,,,,,6,R,ugm-3,3,R,ugm-3
10-01-2006,03:00,3,R,ugm-3,,,,,,,6,R,ugm-3,3,R,ugm-3
10-01-2006,04:00,3,R,ugm-3,,,,,,,6,R,ugm-3,3,R,ugm-3
10-01-2006,05:00,3,R,ugm-3,,,,,,,6,R,ugm-3,3,R,ugm-3
10-01-2006,06:00,3,R,ugm-3,,,,,,,8,R,ugm-3,3,R,ugm-3
10-01-2006,07:00,3,R,ugm-3,,,,,,,6,R,ugm-3,3,R,ugm-3
10-01-2006,08:00,3,R,ugm-3,,,,,,,6,R,ugm-3,3,R,ugm-3
10-01-2006,09:00,3,R,ugm-3,,,,,,,10,R,ugm-3,3,R,ugm-3
10-01-2006,10:00,3,R,ugm-3,,,,,,,10,R,ugm-3,3,R,ugm-3
10-01-2006,11:00,,,,,,,,,,,,,,,
10-01-2006,12:00,,,,,,,,,,8,R,ugm-3,3,R,ugm-3
10-01-2006,13:00,3,R,ugm-3,,,,,,,10,R,ugm-3,3,R,ugm-3
10-01-2006,14:00,3,R,ugm-3,,,,,,,8,R,ugm-3,3,R,ugm-3
10-01-2006,15:00,3,R,ugm-3,,,,,,,8,R,ugm-3,3,R,ugm-3
10-01-2006,16:00,3,R,ugm-3,,,,,,,10,R,ugm-3,3,R,ugm-3
10-01-2006,17:00,3,R,ugm-3,,,,,,,10,R,ugm-3,3,R,ugm-3
10-01-2006,18:00,4,R,ugm-3,,,,,,,10,R,ugm-3,3,R,ugm-3
10-01-2006,19:00,4,R,ugm-3,,,,,,,12,R,ugm-3,3,R,ugm-3
10-01-2006,20:00,3,R,ugm-3,,,,,,,14,R,ugm-3,3,R,ugm-3
10-01-2006,21:00,3,R,ugm-3,,,,,,,16,R,ugm-3,3,R,ugm-3
10-01-2006,22:00,3,R,ugm-3,,,,,,,16,R,ugm-3,3,R,ugm-3
10-01-2006,23:00,3,R,ugm-3,,,,,,,18,R,ugm-3,3,R,ugm-3
10-01-2006,24:00,3,R,ugm-3,,,,,,,16,R,ugm-3,3,R,ugm-3
11-01-2006,01:00,3,R,ugm-3,,,,,,,18,R,ugm-3,3,R,ugm-3
11-01-2006,02:00,3,R,ugm-3,,,,,,,18,R,ugm-3,3,R,ugm-3
11-01-2006,03:00,3,R,ugm-3,,,,,,,20,R,ugm-3,3,R,ugm-3
11-01-2006,04:00,3,R,ugm-3,,,,,,,20,R,ugm-3,3,R,ugm-3
11-01-2006,05:00,3,R,ugm-3,,,,,,,32,R,ugm-3,3,R,ugm-3
11-01-2006,06:00,3,R,ugm-3,,,,,,,36,R,ugm-3,3,R,ugm-3
11-01-2006,07:00,5,R,ugm-3,,,,,,,28,R,ugm-3,5,R,ugm-3
11-01-2006,08:00,4,R,ugm-3,,,,,,,20,R,ugm-3,13,R,ugm-3
11-01-2006,09:00,11,R,ugm-3,,,,,,,14,R,ugm-3,5,R,ugm-3
11-01-2006,10:00,25,R,ugm-3,,,,,,,10,R,ugm-3,5,R,ugm-3
11-01-2006,11:00,16,R,ugm-3,,,,,,,18,R,ugm-3,8,R,ugm-3
11-01-2006,12:00,5,R,ugm-3,,,,,,,28,R,ugm-3,5,R,ugm-3
11-01-2006,13:00,4,R,ugm-3,,,,,,,30,R,ugm-3,8,R,ugm-3
11-01-2006,14:00,4,R,ugm-3,,,,,,,32,R,ugm-3,5,R,ugm-3
11-01-2006,15:00,4,R,ugm-3,,,,,,,36,R,ugm-3,5,R,ugm-3
11-01-2006,16:00,5,R,ugm-3,,,,,,,30,R,ugm-3,8,R,ugm-3
11-01-2006,17:00,6,R,ugm-3,,,,,,,22,R,ugm-3,5,R,ugm-3
11-01-2006,18:00,5,R,ugm-3,,,,,,,22,R,ugm-3,3,R,ugm-3
11-01-2006,19:00,8,R,ugm-3,,,,,,,12,R,ugm-3,3,R,ugm-3
11-01-2006,20:00,4,R,ugm-3,,,,,,,16,R,ugm-3,3,R,ugm-3
11-01-2006,21:00,3,R,ugm-3,,,,,,,20,R,ugm-3,3,R,ugm-3
11-01-2006,22:00,4,R,ugm-3,,,,,,,16,R,ugm-3,3,R,ugm-3
11-01-2006,23:00,3,R,ugm-3,,,,,,,20,R,ugm-3,3,R,ugm-3
11-01-2006,24:00,3,R,ugm-3,,,,,,,22,R,ugm-3,3,R,ugm-3
12-01-2006,01:00,3,R,ugm-3,,,,,,,26,R,ugm-3,3,R,ugm-3
12-01-2006,02:00,3,R,ugm-3,,,,,,,26,R,ugm-3,3,R,ugm-3
12-01-2006,03:00,3,R,ugm-3,,,,,,,30,R,ugm-3,3,R,ugm-3
12-01-2006,04:00,3,R,ugm-3,,,,,,,36,R,ugm-3,3,R,ugm-3
12-01-2006,05:00,3,R,ugm-3,,,,,,,32,R,ugm-3,3,R,ugm-3
12-01-2006,06:00,4,R,ugm-3,,,,,,,32,R,ugm-3,3,R,ugm-3
12-01-2006,07:00,4,R,ugm-3,,,,,,,22,R,ugm-3,3,R,ugm-3
12-01-2006,08:00,4,R,ugm-3,,,,,,,16,R,ugm-3,3,R,ugm-3
12-01-2006,09:00,4,R,ugm-3,,,,,,,14,R,ugm-3,3,R,ugm-3
12-01-2006,10:00,4,R,ugm-3,,,,,,,12,R,ugm-3,3,R,ugm-3
12-01-2006,11:00,4,R,ugm-3,,,,,,,12,R,ugm-3,3,R,ugm-3
12-01-2006,12:00,4,R,ugm-3,,,,,,,16,R,ugm-3,3,R,ugm-3
12-01-2006,13:00,4,R,ugm-3,,,,,,,14,R,ugm-3,3,R,ugm-3
12-01-2006,14:00,4,R,ugm-3,,,,,,,14,R,ugm-3,3,R,ugm-3
12-01-2006,15:00,3,R,ugm-3,,,,,,,16,R,ugm-3,3,R,ugm-3
12-01-2006,16:00,3,R,ugm-3,,,,,,,16,R,ugm-3,3,R,ugm-3
12-01-2006,17:00,4,R,ugm-3,,,,,,,14,R,ugm-3,3,R,ugm-3
12-01-2006,18:00,4,R,ugm-3,,,,,,,12,R,ugm-3,3,R,ugm-3
12-01-2006,19:00,3,R,ugm-3,,,,,,,14,R,ugm-3,3,R,ugm-3
12-01-2006,20:00,3,R,ugm-3,,,,,,,14,R,ugm-3,3,R,ugm-3
12-01-2006,21:00,3,R,ugm-3,,,,,,,16,R,ugm-3,3,R,ugm-3
12-01-2006,22:00,3,R,ugm-3,,,,,,,16,R,ugm-3,3,R,ugm-3
12-01-2006,23:00,3,R,ugm-3,,,,,,,16,R,ugm-3,3,R,ugm-3
12-01-2006,24:00,3,R,ugm-3,,,,,,,18,R,ugm-3,3,R,ugm-3
13-01-2006,01:00,3,R,ugm-3,,,,,,,16,R,ugm-3,3,R,ugm-3
13-01-2006,02:00,3,R,ugm-3,,,,,,,16,R,ugm-3,3,R,ugm-3
13-01-2006,03:00,3,R,ugm-3,,,,,,,16,R,ugm-3,3,R,ugm-3
13-01-2006,04:00,3,R,ugm-3,,,,,,,18,R,ugm-3,3,R,ugm-3
13-01-2006,05:00,3,R,ugm-3,,,,,,,16,R,ugm-3,3,R,ugm-3
13-01-2006,06:00,3,R,ugm-3,,,,,,,14,R,ugm-3,3,R,ugm-3
13-01-2006,07:00,3,R,ugm-3,,,,,,,14,R,ugm-3,3,R,ugm-3
13-01-2006,08:00,3,R,ugm-3,,,,,,,12,R,ugm-3,3,R,ugm-3
13-01-2006,09:00,3,R,ugm-3,,,,,,,12,R,ugm-3,3,R,ugm-3
13-01-2006,10:00,4,R,ugm-3,,,,,,,12,R,ugm-3,3,R,ugm-3
13-01-2006,11:00,4,R,ugm-3,,,,,,,12,R,ugm-3,3,R,ugm-3
13-01-2006,12:00,4,R,ugm-3,,,,,,,14,R,ugm-3,3,R,ugm-3
13-01-2006,13:00,3,R,ugm-3,,,,,,,12,R,ugm-3,3,R,ugm-3
13-01-2006,14:00,3,R,ugm-3,,,,,,,14,R,ugm-3,3,R,ugm-3
13-01-2006,15:00,3,R,ugm-3,,,,,,,16,R,ugm-3,3,R,ugm-3
13-01-2006,16:00,4,R,ugm-3,,,,,,,16,R,ugm-3,3,R,ugm-3
13-01-2006,17:00,3,R,ugm-3,,,,,,,12,R,ugm-3,3,R,ugm-3
13-01-2006,18:00,4,R,ugm-3,,,,,,,12,R,ugm-3,3,R,ugm-3
13-01-2006,19:00,3,R,ugm-3,,,,,,,12,R,ugm-3,3,R,ugm-3
13-01-2006,20:00,3,R,ugm-3,,,,,,,12,R,ugm-3,3,R,ugm-3
13-01-2006,21:00,3,R,ugm-3,,,,,,,16,R,ugm-3,3,R,ugm-3
13-01-2006,22:00,3,R,ugm-3,,,,,,,18,R,ugm-3,3,R,ugm-3
13-01-2006,23:00,3,R,ugm-3,,,,,,,18,R,ugm-3,3,R,ugm-3
13-01-2006,24:00,3,R,ugm-3,,,,,,,20,R,ugm-3,3,R,ugm-3
14-01-2006,01:00,3,R,ugm-3,,,,,,,20,R,ugm-3,3,R,ugm-3
14-01-2006,02:00,3,R,ugm-3,,,,,,,20,R,ugm-3,3,R,ugm-3
14-01-2006,03:00,3,R,ugm-3,,,,,,,18,R,ugm-3,3,R,ugm-3
14-01-2006,04:00,3,R,ugm-3,,,,,,,16,R,ugm-3,3,R,ugm-3
14-01-2006,05:00,3,R,ugm-3,,,,,,,16,R,ugm-3,3,R,ugm-3
14-01-2006,06:00,3,R,ugm-3,,,,,,,18,R,ugm-3,3,R,ugm-3
14-01-2006,07:00,5,R,ugm-3,,,,,,,24,R,ugm-3,3,R,ugm-3
14-01-2006,08:00,4,R,ugm-3,,,,,,,24,R,ugm-3,5,R,ugm-3
14-01-2006,09:00,5,R,ugm-3,,,,,,,20,R,ugm-3,3,R,ugm-3
14-01-2006,10:00,4,R,ugm-3,,,,,,,26,R,ugm-3,3,R,ugm-3
14-01-2006,11:00,5,R,ugm-3,,,,,,,26,R,ugm-3,3,R,ugm-3
14-01-2006,12:00,5,R,ugm-3,,,,,,,28,R,ugm-3,3,R,ugm-3
14-01-2006,13:00,4,R,ugm-3,,,,,,,34,R,ugm-3,3,R,ugm-3
14-01-2006,14:00,4,R,ugm-3,,,,,,,38,R,ugm-3,5,R,ugm-3
14-01-2006,15:00,3,R,ugm-3,,,,,,,42,R,ugm-3,3,R,ugm-3
14-01-2006,16:00,3,R,ugm-3,,,,,,,40,R,ugm-3,3,R,ugm-3
14-01-2006,17:00,4,R,ugm-3,,,,,,,26,R,ugm-3,5,R,ugm-3
14-01-2006,18:00,8,R,ugm-3,,,,,,,18,R,ugm-3,3,R,ugm-3
14-01-2006,19:00,9,R,ugm-3,,,,,,,14,R,ugm-3,3,R,ugm-3
14-01-2006,20:00,5,R,ugm-3,,,,,,,18,R,ugm-3,5,R,ugm-3
14-01-2006,21:00,3,R,ugm-3,,,,,,,18,R,ugm-3,3,R,ugm-3
14-01-2006,22:00,3,R,ugm-3,,,,,,,18,R,ugm-3,5,R,ugm-3
14-01-2006,23:00,3,R,ugm-3,,,,,,,20,R,ugm-3,3,R,ugm-3
14-01-2006,24:00,3,R,ugm-3,,,,,,,22,R,ugm-3,3,R,ugm-3
15-01-2006,01:00,3,R,ugm-3,,,,,,,20,R,ugm-3,3,R,ugm-3
15-01-2006,02:00,3,R,ugm-3,,,,,,,24,R,ugm-3,3,R,ugm-3
15-01-2006,03:00,3,R,ugm-3,,,,,,,28,R,ugm-3,3,R,ugm-3
15-01-2006,04:00,3,R,ugm-3,,,,,,,26,R,ugm-3,3,R,ugm-3
15-01-2006,05:00,3,R,ugm-3,,,,,,,28,R,ugm-3,3,R,ugm-3
15-01-2006,06:00,3,R,ugm-3,,,,,,,22,R,ugm-3,3,R,ugm-3
15-01-2006,07:00,3,R,ugm-3,,,,,,,20,R,ugm-3,3,R,ugm-3
15-01-2006,08:00,3,R,ugm-3,,,,,,,22,R,ugm-3,3,R,ugm-3
15-01-2006,09:00,3,R,ugm-3,,,,,,,20,R,ugm-3,3,R,ugm-3
15-01-2006,10:00,4,R,ugm-3,,,,,,,18,R,ugm-3,3,R,ugm-3
15-01-2006,11:00,3,R,ugm-3,,,,,,,18,R,ugm-3,3,R,ugm-3
15-01-2006,12:00,3,R,ugm-3,,,,,,,20,R,ugm-3,3,R,ugm-3
15-01-2006,13:00,3,R,ugm-3,,,,,,,18,R,ugm-3,3,R,ugm-3
15-01-2006,14:00,3,R,ugm-3,,,,,,,18,R,ugm-3,3,R,ugm-3
15-01-2006,15:00,3,R,ugm-3,,,,,,,20,R,ugm-3,3,R,ugm-3
15-01-2006,16:00,3,R,ugm-3,,,,,,,20,R,ugm-3,3,R,ugm-3
15-01-2006,17:00,3,R,ugm-3,,,,,,,20,R,ugm-3,3,R,ugm-3
15-01-2006,18:00,3,R,ugm-3,,,,,,,20,R,ugm-3,3,R,ugm-3
15-01-2006,19:00,3,R,ugm-3,,,,,,,20,R,ugm-3,5,R,ugm-3
15-01-2006,20:00,3,R,ugm-3,,,,,,,18,R,ugm-3,3,R,ugm-3
15-01-2006,21:00,3,R,ugm-3,,,,,,,18,R,ugm-3,3,R,ugm-3
15-01-2006,22:00,3,R,ugm-3,,,,,,,20,R,ugm-3,5,R,ugm-3
15-01-2006,23:00,3,R,ugm-3,,,,,,,24,R,ugm-3,3,R,ugm-3
15-01-2006,24:00,3,R,ugm-3,,,,,,,24,R,ugm-3,3,R,ugm-3
16-01-2006,01:00,3,R,ugm-3,,,,,,,22,R,ugm-3,5,R,ugm-3
16-01-2006,02:00,3,R,ugm-3,,,,,,,22,R,ugm-3,3,R,ugm-3
16-01-2006,03:00,3,R,ugm-3,,,,,,,18,R,ugm-3,5,R,ugm-3
16-01-2006,04:00,3,R,ugm-3,,,,,,,20,R,ugm-3,3,R,ugm-3
16-01-2006,05:00,3,R,ugm-3,,,,,,,20,R,ugm-3,5,R,ugm-3
16-01-2006,06:00,3,R,ugm-3,,,,,,,20,R,ugm-3,3,R,ugm-3
16-01-2006,07:00,3,R,ugm-3,,,,,,,18,R,ugm-3,3,R,ugm-3
16-01-2006,08:00,3,R,ugm-3,,,,,,,16,R,ugm-3,3,R,ugm-3
16-01-2006,09:00,3,R,ugm-3,,,,,,,14,R,ugm-3,0,R,ugm-3
16-01-2006,10:00,3,R,ugm-3,,,,,,,12,R,ugm-3,3,R,ugm-3
16-01-2006,11:00,3,R,ugm-3,,,,,,,14,R,ugm-3,0,R,ugm-3
16-01-2006,12:00,3,R,ugm-3,,,,,,,14,R,ugm-3,0,R,ugm-3
16-01-2006,13:00,3,R,ugm-3,,,,,,,22,R,ugm-3,3,R,ugm-3
16-01-2006,14:00,4,R,ugm-3,,,,,,,28,R,ugm-3,3,R,ugm-3
16-01-2006,15:00,6,R,ugm-3,,,,,,,24,R,ugm-3,5,R,ugm-3
16-01-2006,16:00,8,R,ugm-3,,,,,,,18,R,ugm-3,5,R,ugm-3
16-01-2006,17:00,4,R,ugm-3,,,,,,,28,R,ugm-3,3,R,ugm-3
16-01-2006,18:00,4,R,ugm-3,,,,,,,28,R,ugm-3,3,R,ugm-3
16-01-2006,19:00,3,R,ugm-3,,,,,,,20,R,ugm-3,0,R,ugm-3
16-01-2006,20:00,3,R,ugm-3,,,,,,,20,R,ugm-3,0,R,ugm-3
16-01-2006,21:00,3,R,ugm-3,,,,,,,18,R,ugm-3,0,R,ugm-3
16-01-2006,22:00,3,R,ugm-3,,,,,,,20,R,ugm-3,0,R,ugm-3
16-01-2006,23:00,3,R,ugm-3,,,,,,,20,R,ugm-3,0,R,ugm-3
16-01-2006,24:00,3,R,ugm-3,,,,,,,28,R,ugm-3,0,R,ugm-3
17-01-2006,01:00,3,R,ugm-3,,,,,,,32,R,ugm-3,0,R,ugm-3
17-01-2006,02:00,6,R,ugm-3,,,,,,,14,R,ugm-3,3,R,ugm-3
17-01-2006,03:00,6,R,ugm-3,,,,,,,14,R,ugm-3,3,R,ugm-3
17-01-2006,04:00,4,R,ugm-3,,,,,,,14,R,ugm-3,3,R,ugm-3
17-01-2006,05:00,3,R,ugm-3,,,,,,,16,R,ugm-3,3,R,ugm-3
17-01-2006,06:00,4,R,ugm-3,,,,,,,12,R,ugm-3,3,R,ugm-3
17-01-2006,07:00,15,R,ugm-3,,,,,,,6,R,ugm-3,3,R,ugm-3
17-01-2006,08:00,16,R,ugm-3,,,,,,,4,R,ugm-3,5,R,ugm-3
17-01-2006,09:00,19,R,ugm-3,,,,,,,2,R,ugm-3,3,R,ugm-3
17-01-2006,10:00,9,R,ugm-3,,,,,,,10,R,ugm-3,,,
17-01-2006,11:00,8,R,ugm-3,,,,,,,22,R,ugm-3,0,R,ugm-3
17-01-2006,12:00,5,R,ugm-3,,,,,,,30,R,ugm-3,0,R,ugm-3
17-01-2006,13:00,4,R,ugm-3,,,,,,,36,R,ugm-3,3,R,ugm-3
17-01-2006,14:00,4,R,ugm-3,,,,,,,38,R,ugm-3,3,R,ugm-3
17-01-2006,15:00,4,R,ugm-3,,,,,,,38,R,ugm-3,0,R,ugm-3
17-01-2006,16:00,3,R,ugm-3,,,,,,,34,R,ugm-3,0,R,ugm-3
17-01-2006,17:00,3,R,ugm-3,,,,,,,34,R,ugm-3,3,R,ugm-3
17-01-2006,18:00,3,R,ugm-3,,,,,,,34,R,ugm-3,0,R,ugm-3
17-01-2006,19:00,3,R,ugm-3,,,,,,,32,R,ugm-3,3,R,ugm-3
17-01-2006,20:00,3,R,ugm-3,,,,,,,36,R,ugm-3,0,R,ugm-3
17-01-2006,21:00,5,R,ugm-3,,,,,,,26,R,ugm-3,3,R,ugm-3
17-01-2006,22:00,4,R,ugm-3,,,,,,,28,R,ugm-3,3,R,ugm-3
17-01-2006,23:00,6,R,ugm-3,,,,,,,22,R,ugm-3,3,R,ugm-3
17-01-2006,24:00,3,R,ugm-3,,,,,,,34,R,ugm-3,3,R,ugm-3
18-01-2006,01:00,3,R,ugm-3,,,,,,,32,R,ugm-3,3,R,ugm-3
18-01-2006,02:00,3,R,ugm-3,,,,,,,30,R,ugm-3,3,R,ugm-3
18-01-2006,03:00,4,R,ugm-3,,,,,,,24,R,ugm-3,3,R,ugm-3
18-01-2006,04:00,4,R,ugm-3,,,,,,,20,R,ugm-3,3,R,ugm-3
18-01-2006,05:00,3,R,ugm-3,,,,,,,28,R,ugm-3,3,R,ugm-3
18-01-2006,06:00,3,R,ugm-3,,,,,,,36,R,ugm-3,3,R,ugm-3
18-01-2006,07:00,3,R,ugm-3,,,,,,,40,R,ugm-3,3,R,ugm-3
18-01-2006,08:00,3,R,ugm-3,,,,,,,32,R,ugm-3,3,R,ugm-3
18-01-2006,09:00,3,R,ugm-3,,,,,,,20,R,ugm-3,3,R,ugm-3
18-01-2006,10:00,4,R,ugm-3,,,,,,,22,R,ugm-3,3,R,ugm-3
18-01-2006,11:00,4,R,ugm-3,,,,,,,22,R,ugm-3,3,R,ugm-3
18-01-2006,12:00,4,R,ugm-3,,,,,,,24,R,ugm-3,3,R,ugm-3
18-01-2006,13:00,4,R,ugm-3,,,,,,,24,R,ugm-3,3,R,ugm-3
18-01-2006,14:00,4,R,ugm-3,,,,,,,24,R,ugm-3,3,R,ugm-3
18-01-2006,15:00,4,R,ugm-3,,,,,,,22,R,ugm-3,3,R,ugm-3
18-01-2006,16:00,5,R,ugm-3,,,,,,,18,R,ugm-3,3,R,ugm-3
18-01-2006,17:00,6,R,ugm-3,,,,,,,10,R,ugm-3,3,R,ugm-3
18-01-2006,18:00,14,R,ugm-3,,,,,,,2,R,ugm-3,3,R,ugm-3
18-01-2006,19:00,9,R,ugm-3,,,,,,,4,R,ugm-3,3,R,ugm-3
18-01-2006,20:00,5,R,ugm-3,,,,,,,8,R,ugm-3,3,R,ugm-3
18-01-2006,21:00,3,R,ugm-3,,,,,,,14,R,ugm-3,3,R,ugm-3
18-01-2006,22:00,3,R,ugm-3,,,,,,,24,R,ugm-3,3,R,ugm-3
18-01-2006,23:00,3,R,ugm-3,,,,,,,26,R,ugm-3,3,R,ugm-3
18-01-2006,24:00,3,R,ugm-3,,,,,,,28,R,ugm-3,3,R,ugm-3
19-01-2006,01:00,3,R,ugm-3,,,,,,,26,R,ugm-3,3,R,ugm-3
19-01-2006,02:00,3,R,ugm-3,,,,,,,26,R,ugm-3,5,R,ugm-3
19-01-2006,03:00,1,R,ugm-3,,,,,,,26,R,ugm-3,3,R,ugm-3
19-01-2006,04:00,1,R,ugm-3,,,,,,,26,R,ugm-3,3,R,ugm-3
19-01-2006,05:00,1,R,ugm-3,,,,,,,28,R,ugm-3,3,R,ugm-3
19-01-2006,06:00,3,R,ugm-3,,,,,,,26,R,ugm-3,3,R,ugm-3
19-01-2006,07:00,3,R,ugm-3,,,,,,,22,R,ugm-3,3,R,ugm-3